RH
16 13 15 22 24 23 22 27 44 84 83 95 96 93 88 76 74 74 68 86 86 90 84 82 73 63 65 75 75 62 62 60 71 83 90 89 89 89 89 40 5 6 9 9 9 10 8 7 7
17 12 13 18 24 26 39 52 34 36 50 72 87 96 88 90 88 85 61 72 82 77 73 68 70 68 77 76 66 62 68 83 94 82 93 89 93 89 73 40 10 7 10 17 11 9 8 7 7
19 13 13 16 23 32 53 44 33 26 31 56 67 72 78 75 73 62 60 64 76 74 80 80 73 76 75 70 62 61 65 92 87 93 94 96 94 92 91 80 31 8 15 29 9 8 7 7 7
20 14 14 22 34 42 48 54 29 28 41 49 63 72 60 68 59 51 80 82 83 88 83 80 62 62 61 60 57 58 59 98 76 81 90 98 96 91 52 41 9 17 34 12 8 6 7 7 8
19 18 17 26 43 65 63 66 42 44 58 67 78 79 74 63 48 45 74 65 70 68 77 66 66 85 76 72 70 64 97 96 96 97 87 100 98 94 86 66 34 27 12 9 7 6 11 16 10
23 21 21 45 48 86 81 88 69 55 73 84 83 88 89 75 72 72 67 59 63 83 87 86 85 95 100 93 91 91 98 95 96 96 99 97 94 66 25 17 9 21 19 12 11 26 29 21 14
24 23 60 67 76 92 98 100 100 100 100 96 97 97 89 85 68 64 60 60 64 70 92 92 96 94 97 93 99 90 97 92 98 96 97 97 95 83 50 42 32 33 8 11 31 30 19 21 29
24 27 87 76 93 99 100 96 97 98 96 90 100 81 85 95 94 82 58 46 37 43 54 68 92 85 97 98 97 88 89 96 96 96 96 79 25 13 10 10 11 10 12 34 32 30 28 39 35
25 43 96 88 96 96 96 84 91 79 78 73 90 95 89 75 77 64 63 45 37 45 96 96 96 97 97 96 96 97 96 96 97 95 94 72 21 17 14 17 16 25 47 36 32 39 40 33 27
34 66 100 89 90 92 93 84 92 79 61 65 62 71 74 76 53 57 70 52 48 51 64 90 65 77 95 98 97 96 97 96 96 93 64 27 46 32 33 32 40 38 40 46 54 42 42 32 16
40 100 100 85 87 89 99 92 94 85 53 46 44 44 51 57 58 41 53 50 48 41 62 79 86 97 96 97 96 97 96 95 70 40 49 64 75 68 71 58 47 58 66 68 52 58 52 19 13
49 98 95 100 93 98 84 86 78 77 64 58 54 59 56 68 65 47 75 48 55 56 72 96 97 96 97 95 96 96 96 91 94 92 74 60 71 61 76 85 79 67 64 61 62 58 30 14 13
48 93 100 98 94 90 89 75 67 61 63 47 68 72 84 92 92 81 85 81 81 76 95 98 97 99 96 96 97 95 87 87 76 64 55 80 92 94 85 81 63 59 32 21 18 15 14 15 17
56 62 88 83 96 91 77 59 58 52 37 40 83 81 97 94 96 100 96 90 81 85 93 86 78 81 76 79 89 82 86 76 80 90 96 95 76 77 59 39 36 23 14 14 14 13 16 19 21
78 71 62 64 58 74 55 50 66 78 80 96 97 98 97 100 98 71 55 80 92 78 80 76 85 74 75 80 80 71 67 71 76 80 78 43 25 40 32 29 19 15 15 16 16 19 20 18 18
85 73 68 78 96 70 77 85 97 95 70 94 96 97 100 97 88 56 65 64 49 54 59 77 85 76 67 57 57 62 71 71 66 69 50 47 46 58 25 16 16 16 18 19 19 18 18 17 18
97 79 85 99 94 71 93 83 95 54 44 48 62 79 52 90 57 35 35 33 34 40 46 45 42 45 64 61 66 46 33 35 60 72 40 42 20 19 18 18 20 20 18 15 17 18 17 18 18
84 88 98 95 98 97 84 83 74 62 65 63 45 36 32 39 53 56 56 48 43 40 42 36 27 23 33 36 26 29 37 58 65 38 18 18 19 19 19 19 17 17 17 17 16 15 16 17 20
65 85 88 95 74 100 92 73 61 58 51 67 79 40 26 27 29 31 28 29 38 49 36 25 21 23 23 24 25 41 47 66 77 37 19 20 20 20 16 16 17 18 16 13 12 16 21 25 29
56 73 79 92 92 94 72 73 57 59 45 38 64 68 52 30 32 33 32 28 24 20 28 24 24 30 54 62 51 71 47 34 68 36 21 21 19 16 16 18 17 13 13 15 22 27 30 40 50
59 64 82 89 68 75 79 88 76 59 43 20 31 36 42 42 30 25 24 26 24 22 21 22 21 55 68 72 83 41 39 71 68 39 26 48 20 16 17 16 16 25 20 22 28 37 46 57 68
56 60 69 91 84 85 61 55 53 59 58 23 33 35 33 38 48 38 34 46 39 33 22 17 19 57 61 62 45 30 39 57 57 68 52 25 24 25 16 19 34 34 32 43 47 62 72 51 60
54 62 67 76 84 66 65 57 73 45 47 28 23 68 83 32 43 61 47 45 42 37 25 43 29 53 51 56 40 32 50 82 82 78 63 63 48 45 27 30 50 59 63 66 74 78 99 100 90
55 68 63 66 66 53 58 53 64 74 48 29 17 39 70 57 38 42 49 47 64 64 40 56 72 58 74 83 29 22 34 55 58 80 83 51 62 54 35 62 87 93 70 96 90 76 100 100 65
63 64 61 67 75 70 76 59 57 80 82 47 52 63 63 44 35 41 42 80 77 52 62 72 76 81 70 76 59 35 40 56 73 71 78 56 64 56 74 96 96 95 99 100 100 57 60 52 93
68 60 63 63 75 67 64 40 34 62 65 83 73 50 41 30 29 29 60 52 43 57 74 92 90 76 93 80 62 63 61 65 77 79 76 88 98 94 100 94 100 92 100 94 73 78 75 73 68
72 75 70 57 57 50 44 39 36 52 59 62 53 54 28 18 16 16 21 38 24 27 33 60 92 71 42 26 34 36 58 60 77 83 100 100 100 100 100 91 79 79 86 78 99 90 66 77 81
80 79 75 60 53 49 47 47 49 54 68 68 62 67 27 17 17 16 16 16 17 18 23 22 23 32 24 18 22 42 51 67 75 90 91 96 100 97 92 71 78 94 100 100 88 84 82 78 77
96 82 78 90 77 59 45 45 53 52 46 59 54 46 50 47 18 17 17 17 18 20 21 23 23 24 24 48 59 69 75 79 92 96 99 100 100 95 100 98 99 100 100 98 93 83 86 93 94
70 65 70 74 69 76 66 44 33 40 35 32 29 52 82 72 48 39 34 20 23 24 22 22 25 37 55 69 72 75 83 92 94 80 96 100 95 100 100 100 100 100 100 82 92 90 84 73 81
Wind_Speed
23 24 30 34 34 32 30 33 36 39 40 31 30 32 31 32 31 29 28 26 26 25 26 26 26 28 30 31 31 30 27 27 27 30 28 26 21 21 21 14 12 16 12 11 14 14 14 14 15
19 22 27 32 32 32 28 21 28 32 37 36 35 27 30 30 26 26 30 29 27 29 28 30 30 32 32 27 26 29 26 22 25 28 29 25 22 21 19 13 12 15 14 15 16 16 15 16 17
18 20 26 30 32 28 19 21 24 25 31 32 33 32 28 31 34 32 28 30 32 32 31 32 36 37 33 34 34 32 31 28 31 27 26 23 25 22 19 16 13 16 16 20 18 18 18 19 20
18 19 24 26 24 20 17 21 22 24 26 28 27 29 31 30 36 33 31 25 27 30 32 35 34 36 38 37 38 37 35 30 32 30 31 28 26 25 13 13 17 17 20 22 20 17 19 22 23
17 17 20 22 20 14 17 23 22 23 24 25 28 27 27 28 31 38 34 33 30 31 33 34 33 32 30 38 33 31 26 34 34 34 33 30 30 17 12 16 17 22 23 22 16 19 22 24 24
15 14 17 18 16 17 20 25 20 22 25 27 27 37 26 23 26 32 36 34 35 33 30 34 37 33 30 27 32 30 36 36 41 37 36 31 26 9 10 13 16 19 22 21 19 22 24 29 29
14 14 15 16 18 18 18 19 23 18 22 23 27 21 13 18 21 23 27 30 32 32 24 38 43 29 42 39 46 28 42 48 40 39 36 24 11 9 12 14 17 21 20 20 21 24 28 29 28
13 14 17 19 18 20 20 20 15 13 20 23 25 30 18 17 21 22 26 28 30 30 35 44 44 48 48 49 43 51 40 43 41 34 20 9 8 10 11 13 16 17 18 20 23 26 28 25 26
12 14 16 19 22 23 23 18 4 7 13 14 17 11 11 13 21 27 27 27 26 21 26 31 43 48 42 45 40 39 54 49 34 23 18 11 8 7 9 13 16 17 18 24 27 23 21 24 26
11 15 15 20 22 25 23 17 14 9 15 14 13 14 15 19 19 23 32 27 22 25 20 33 39 38 34 36 24 32 43 35 22 18 13 9 9 8 9 11 11 16 21 25 21 22 22 26 24
12 20 22 23 21 20 19 19 15 12 12 16 19 18 18 20 22 21 23 27 30 29 28 32 29 44 41 34 22 25 30 21 17 15 14 12 9 9 10 13 18 20 22 22 23 23 25 26 21
12 22 23 17 23 21 17 17 19 17 17 17 20 20 20 17 18 18 16 20 22 25 24 15 18 25 31 22 25 30 28 21 19 14 8 6 8 12 15 15 17 17 18 23 25 25 25 21 24
11 24 24 24 17 19 18 11 16 21 25 21 27 20 15 15 13 14 12 10 15 16 17 24 22 29 32 21 24 25 18 15 12 11 9 8 10 12 16 15 17 21 21 21 21 21 22 25 29
9 15 17 20 12 12 14 15 18 22 28 30 23 17 14 12 13 6 8 14 12 11 15 16 15 18 20 15 12 13 14 11 10 7 8 11 15 14 16 16 17 20 18 17 21 24 27 30 32
9 9 13 13 14 17 17 20 19 17 17 10 14 9 9 11 12 15 13 16 20 18 14 18 16 14 8 11 8 6 5 5 4 9 11 13 13 14 14 15 15 16 19 22 26 29 30 34 37
11 8 8 9 10 11 11 14 14 6 10 8 18 14 9 18 19 18 15 16 13 15 14 12 13 11 11 11 8 6 6 7 9 9 11 11 12 11 14 14 17 20 24 27 30 33 35 39 41
13 10 12 12 6 11 9 7 9 13 9 9 11 14 15 20 18 15 15 14 16 14 12 11 10 9 10 12 6 6 8 8 8 9 11 9 9 11 14 18 21 26 27 33 35 37 41 43 45
10 13 14 13 7 5 9 13 13 8 7 6 7 9 13 17 18 17 15 13 13 13 11 10 9 7 7 7 9 9 10 11 9 8 7 8 11 15 19 23 26 29 33 38 40 42 45 47 48
11 11 9 7 7 12 10 14 14 10 7 5 4 6 9 11 12 13 12 11 11 11 9 9 7 6 6 8 10 9 11 10 10 8 10 14 16 20 24 27 30 34 38 42 44 45 46 46 46
12 13 11 12 8 15 13 11 14 12 8 7 6 5 6 8 9 11 13 12 11 10 9 7 6 5 6 9 9 10 9 10 11 12 15 18 22 25 29 33 36 39 43 46 46 46 48 49 49
14 15 13 15 14 11 12 13 8 7 7 8 7 6 4 6 8 10 11 11 9 8 8 7 6 8 8 10 11 10 9 11 14 18 21 23 28 32 35 37 40 42 46 47 48 47 48 50 52
17 17 17 17 17 13 11 10 11 12 11 11 8 5 5 6 7 8 9 8 8 10 10 10 9 11 11 12 13 11 11 14 19 23 23 31 32 35 39 43 43 47 48 45 47 50 51 52 52
17 19 17 23 21 14 14 11 8 10 12 10 13 12 13 16 15 13 13 13 13 15 14 12 13 12 12 14 12 13 15 18 22 25 30 32 39 42 46 49 45 48 50 48 50 55 51 56 59
18 15 19 19 18 15 13 11 2 3 7 11 15 20 18 18 18 18 18 14 14 17 17 16 14 14 13 11 13 16 19 22 24 29 31 41 42 45 51 46 48 51 54 50 50 50 50 62 65
14 16 15 17 18 16 16 15 4 8 6 11 7 9 9 15 17 21 21 20 19 19 16 15 12 12 14 15 15 20 23 26 30 32 35 43 45 49 46 45 45 56 47 47 59 64 58 64 66
20 18 19 20 18 16 17 15 8 13 10 9 11 15 16 15 16 18 21 17 15 13 12 13 12 14 15 16 20 24 28 31 34 36 41 41 44 45 47 42 52 48 54 58 59 60 64 64 67
21 23 22 23 20 18 17 17 13 12 17 14 11 13 17 12 11 10 10 12 12 10 12 15 14 16 18 21 25 29 30 34 33 34 38 41 46 50 52 50 56 62 58 60 65 63 67 67 69
20 19 21 19 20 18 19 21 20 17 19 18 18 16 16 15 13 11 10 12 14 13 14 17 19 21 23 27 30 32 32 31 31 35 39 43 47 54 57 61 59 61 63 64 70 71 70 70 72
23 22 21 20 22 24 22 17 20 20 17 19 17 18 18 19 16 15 14 15 16 17 20 21 24 27 30 32 34 34 34 34 32 36 40 44 52 55 55 66 62 66 67 70 73 69 70 71 76
27 27 27 26 26 25 27 20 19 20 21 18 18 16 18 19 20 19 19 19 20 24 26 26 30 32 33 35 36 37 39 37 37 38 47 49 57 60 65 54 68 69 71 70 70 71 71 75 81
Wind_Direction
271 262 247 244 246 240 236 236 237 237 243 252 256 246 246 250 253 254 254 250 244 245 245 252 260 266 274 279 281 281 288 278 282 293 294 301 306 300 304 300 266 255 267 274 281 292 302 307 310
276 272 253 243 242 241 242 244 241 237 236 242 244 245 243 241 243 243 246 250 248 246 249 255 262 266 270 279 285 285 285 282 276 282 289 292 295 291 292 270 255 252 262 277 278 287 294 303 306
277 275 254 241 242 241 248 245 241 236 234 237 242 243 240 239 240 243 245 248 250 249 257 259 264 266 266 280 281 276 272 263 269 275 277 276 279 288 280 252 240 248 259 267 275 284 295 301 303
276 269 253 238 239 241 231 240 237 234 226 233 235 235 238 241 242 242 246 250 248 250 252 257 266 268 270 276 274 270 273 247 266 272 267 258 274 274 265 252 244 250 252 260 267 281 291 294 297
272 264 248 235 228 218 217 230 226 216 224 225 229 232 234 242 244 241 245 255 262 260 262 265 263 267 267 267 265 260 252 240 266 266 260 252 262 261 241 235 231 248 257 265 278 287 288 291 300
268 253 236 223 207 211 220 223 228 221 224 224 232 235 224 235 238 241 243 254 258 263 272 267 260 258 271 256 247 268 239 256 257 255 254 243 252 234 238 244 246 252 257 269 282 283 290 299 302
263 235 209 203 193 215 230 234 227 234 236 231 248 261 227 239 248 242 249 257 258 268 268 275 244 253 272 267 244 259 241 265 247 246 240 232 184 189 226 240 247 252 266 276 279 287 294 297 301
258 221 197 191 203 220 228 232 238 268 260 241 250 242 245 256 258 261 254 258 267 278 273 257 241 254 258 245 240 264 266 239 239 231 210 156 186 212 225 235 244 255 272 274 280 289 300 302 301
257 200 198 199 218 226 229 233 298 287 269 264 287 242 254 280 264 264 256 253 259 276 243 235 237 243 249 227 270 270 267 234 222 178 157 147 177 203 233 244 260 263 274 283 293 288 287 294 298
230 182 196 207 230 237 237 238 250 304 272 277 282 285 268 260 272 274 249 249 252 269 267 252 263 266 250 244 256 266 239 232 187 146 151 175 186 222 246 258 280 285 288 282 276 282 299 304 301
207 188 203 208 229 244 244 250 248 277 286 286 284 283 281 279 278 287 264 249 251 264 258 249 254 251 247 232 239 235 223 201 145 155 162 179 197 237 258 266 267 264 274 268 265 286 302 301 300
199 203 215 209 220 230 251 262 274 267 279 298 296 281 283 283 278 271 286 253 249 251 263 231 238 237 230 229 232 214 204 183 165 152 166 199 227 246 253 263 272 280 279 266 276 290 294 299 299
209 216 227 229 224 238 244 269 291 289 270 281 293 275 271 283 282 275 300 278 262 246 244 230 244 262 231 185 156 144 129 135 160 177 189 210 246 250 253 267 283 278 289 293 296 299 295 300 302
236 235 241 261 278 265 275 278 299 295 277 271 268 251 240 256 257 235 186 97 104 129 111 127 98 86 104 108 127 139 148 169 170 193 220 234 260 265 271 286 290 292 294 298 294 292 292 296 299
270 252 242 255 269 266 265 266 285 281 279 264 221 212 218 189 142 135 111 94 99 88 107 110 110 117 120 114 143 154 139 177 194 224 238 265 276 282 291 285 287 289 292 289 289 290 294 296 298
267 237 225 209 224 243 249 256 249 240 46 63 78 92 152 147 120 115 116 119 123 112 107 114 129 156 174 171 175 187 194 204 228 244 267 285 285 275 284 290 287 288 284 289 288 293 297 298 299
255 245 208 226 238 257 238 182 123 89 81 84 81 94 97 105 123 128 130 130 130 134 141 143 159 172 179 182 196 220 231 237 250 250 274 278 279 282 284 280 285 286 291 293 297 301 300 300 300
269 240 195 190 190 194 164 130 110 108 104 86 106 114 123 144 151 152 161 166 153 154 161 174 177 164 184 208 231 245 259 253 250 268 265 270 274 273 277 285 289 293 300 300 301 301 302 304 304
271 251 257 232 259 209 171 149 141 137 139 131 128 143 151 155 150 150 164 173 182 182 173 178 178 200 224 239 246 245 252 253 248 254 264 267 273 281 289 294 298 302 300 301 303 303 301 299 299
236 252 273 259 234 192 185 197 171 161 165 172 159 194 194 171 167 167 171 174 177 171 174 182 197 222 238 242 244 245 247 235 242 257 267 277 289 297 299 299 302 303 304 305 305 302 304 305 305
209 232 246 247 212 206 207 209 208 193 193 188 192 191 218 230 195 186 184 174 177 188 203 215 221 230 227 244 243 252 248 242 261 274 278 287 298 300 300 300 299 304 307 307 305 305 304 306 303
209 218 229 213 226 222 221 216 223 213 213 194 181 175 227 217 223 224 214 215 215 224 228 236 238 228 235 234 244 257 262 262 273 273 286 288 291 297 302 304 304 308 309 308 309 304 306 310 307
215 229 228 227 228 226 240 260 232 240 215 205 197 203 227 226 221 232 239 232 233 244 243 248 250 245 239 232 248 266 273 275 284 282 290 299 301 298 304 307 305 308 310 307 309 305 299 305 308
215 218 230 231 235 246 267 277 276 242 224 210 221 244 222 217 225 226 230 238 247 252 255 262 261 266 248 239 271 285 292 296 302 296 288 303 299 299 303 304 304 304 310 302 307 307 294 300 305
221 209 226 237 240 255 255 278 264 245 300 210 240 232 224 217 221 225 226 236 242 252 251 253 256 255 263 271 280 288 298 301 301 300 293 299 296 297 302 305 306 307 309 294 301 304 301 302 303
208 222 237 239 242 251 263 278 277 244 252 257 264 262 248 243 233 230 228 232 236 244 250 267 267 268 271 287 289 297 299 303 303 300 297 295 297 300 303 302 285 298 296 298 301 306 308 305 304
220 223 231 244 254 257 273 272 261 277 261 263 260 269 265 241 213 220 220 231 241 254 266 273 271 280 291 299 298 299 299 300 299 294 296 298 299 298 299 296 289 296 298 304 311 309 309 306 305
206 218 234 250 264 264 266 285 271 265 261 259 267 269 262 242 237 237 240 245 253 260 272 283 292 291 294 294 299 302 301 299 296 292 289 296 290 291 288 298 298 302 302 303 307 307 305 306 308
215 229 237 249 260 268 277 267 273 266 253 258 259 256 254 252 249 251 254 262 269 277 281 287 291 295 298 301 302 301 301 301 294 287 282 278 285 289 288 299 298 299 302 304 303 304 307 306 306
218 226 236 245 252 260 271 284 263 265 269 265 261 252 247 259 263 267 275 277 281 281 286 294 296 296 297 296 295 295 299 297 286 273 279 281 281 283 292 294 297 300 301 302 304 303 304 309 311